Location: Asheville, NC
(35.6000°N, 82.5500°W)
Time: 01:19:52
(UTC-04:00)

SEEDS - Pass Details

Date: 04 January 2018
Orbit: 587 x 605 km, 97.5° (Epoch: 25 April)

Event Time Altitude Azimuth Distance (km) Brightness Sun altitude
Rises 19:08:15 0° 170° (S) 2,842 ? -19.3°
Reaches altitude 10° 19:10:25 10° 171° (S) 1,943 ? -19.8°
Maximum altitude 19:14:38 80° 258° (WSW) 618 ? -20.6°
Drops below altitude 10° 19:18:54 10° 346° (NNW) 1,953 ? -21.4°
Sets 19:21:04 0° 347° (NNW) 2,858 ? -21.9°
